DELTA 1 DEB, 7093

Orbit data source: Space-Track

DELTA 1 DEB, 7093 is space debris in SSO originally from a launch on Tue, 06 Nov 1973 UTC launched from the Air Force Western Test Range (AFWTR). Debris objects in space refer to the collection of defunct objects orbiting the Earth. Examples of debris include non-operational satellites, rocket bodies, and fragments generated from explosions, collisions, or faulty payload assembly.

Loading next visibility...
Identifier
7093, 1973-086CM
Orbit
SSO
Country
Flag of USUS
Related business
Manufacturer
Unknown
Mission
Spacecraft
Bus & Motor
Unknown
Mass
Unknown
Launch date (UTC)
1973-11-06 (53 years ago)
Launch vehicle
Unknown
Launch site
Air Force Western Test Range (AFWTR)
Object type
Payload
Rocket body
Debris
Shape & HBR
Unknown shape, 0.2 m
Radar Cross Section
Medium (>0.1 m² and <1 m²)

Expand to show TLE details & history
Last TLE update: 15 hours ago

TLE from 15 hours ago
0 DELTA 1 DEB
1  7093U 73086CM  26263.01820382 -.00000028  00000-0  15276-3 0  9991
2  7093 102.5587 290.6030 0071041  91.0680 301.9688 12.27070498357006
Epoch: 2026-09-20T00:26Z
TLE epoch observation values (Epoch: 2026-09-20T00:26:12.810Z)
Latitude
31.53398°
Longitude
-82.68691°
Altitude
1,535.994 km
Speed
7.114 km/s
True Right ascension
18h 51m 08s
True Declination
31° 23' 45"
Sunlit
Object was in daylight at epoch
Visualization orbit readout
Latitude
Unknown
Longitude
Unknown
Altitude
Unknown
Speed
Unknown
Apparent Right ascension
Unknown
Apparent Declination
Unknown
Sunlit
N/A
Visualization observer readout
Local Sidereal Time
08:48:36
Azimuth
Unknown
Elevation
Unknown
Doppler factor
Unknown
Orbital elements
Apogee altitude
1,615.909 km
Perigee altitude
1,503.129 km
Semi-major axis
7,937.656 km
Eccentricity
0.0071
Inclination
102.5587°
RAAN
290.603°
Arg. of periapsis
91.068°
True anomaly
301.27495°
Mean anomaly
301.9688°
Eccentric anomaly
301.6222°
Mean motion
3.06906 °/min
Orbital period
117.3 mins
BSTAR
0.00015276
Loading maneuver chart data...
Computing Atmospheric mass density...
Loading historical data...
Loading historical data...
Loading historical data...
Loading historical data...
Loading historical data...
Loading historical data...
Loading historical data...

Documentation

Showing up to 5 results
|